Weather in Partizanskiy

Russia / Orenburg Oblast     53°00′00″N   52°08′05″E
В апреле 2022 года жителям России запретили посещать сайт meteo.paraplan.net по решению Генеральной прокуратуры. Аудитория сайта уменьшилась в 10 раз. Владельцы сайта не видят смысла в поддержке погодного сервера в таких условиях. Сайт будет закрыт в октябре.
temp.,
°C
wind,
m/s
gust,
m/s
humid.,
%
clouds,
%
prec.,
mm/h
press.,
hPa
HPBL,
m
30 september, fri
fri3023:00+8ese3793100 2.6 1015347
02:00+7ese369281 0.0 1017269
05:00+7e3592100 0.0 1018220
08:00+7ene368985 0.0 1020263
11:00+9e348083 0.0 1021375
14:00+12ene347268 0.0 1022558
17:00+12e45685 0.0 1023646
20:00+8e3781100 0.0 1025221
1 october, sat
sat123:00+6e3784100 0.0 1025199
02:00+6e3783100 0.0 1025198
05:00+6e2681100 0.0 1025171
08:00+5ene2581100 0.0 1026135
11:00+11ese355797 0.0 1025356
14:00+16sse354968 0.0 1024743
17:00+17sse35505 0.0 1024909
20:00+11ese410605 0.0 1024223
2 october, sun
sun223:00+10se310645 0.0 1023235
02:00+9se310675 0.0 1023213
05:00+8se310675 0.0 1022221
08:00+8se3116531 0.0 1022264
11:00+13sse5115083 0.0 1021483
14:00+18s594336 0.0 1020884
17:00+19s595099 0.0 10191145
20:00+14sse31067100 0.0 1019224
3 october, mon
mon323:00+15sse5145698 0.0 1018497
02:00+14sse51354100 0.0 1018517
05:00+13sse4136587 0.1 1018511
08:00+12sse5136196 0.2 1019465
11:00+16sse51346100 0.2 1020621
14:00+19s6103691 0.0 10211028
17:00+19s5937100 0.0 10211202
20:00+15sse41239100 0.0 1023535
4 october, tue
tue423:00+14sse4143994 0.0 1024514
02:00+13sse51439100 0.0 1024499
05:00+11se4144341 0.0 1025458
08:00+10se41444100 0.0 1026418
11:00+13se51233100 0.0 1027634
14:00+16sse61024100 0.0 10271070
17:00+15sse5926100 0.0 10271167
20:00+12se41132100 0.0 1029372